Terminal Aerodrome Forecast
Issued by NWS Melbourne, FL

Home | Current Version | Previous Version | Text Only | Print | Product List | Glossary On
Versions: 1 2 3 4 5 6 7 8 9 10 11 12 13 14 15 16 17 18 19
000
FTUS42 KMLB 050539
TAFVRB
TAF
KVRB 050539Z 0506/0606 15008KT P6SM SKC
     FM050900 VRB03KT 5SM BR SCT010 SCT025
     FM051300 19009KT P6SM SCT025 SCT035
     FM060300 27007KT P6SM BKN035 OVC060=

USA.gov is the U.S. government's official web portal to all federal, state and local government web resources and services.